Change the Weather History Date:

Saturday, February 8, 2014

  Actual Average (KHTO) Record (KHTO)
Temperature  
Mean Temperature 28 °F -  
Max Temperature 30 °F 35 °F 59 °F (2009)
Min Temperature 25 °F 21 °F 0 °F (1963)
Degree Days  
Heating Degree Days 38    
Moisture  
Dew Point 10 °F    
Average Humidity 49    
Maximum Humidity 53    
Minimum Humidity 45    
Precipitation  
Precipitation 0.00 in - - ()
Sea Level Pressure  
Sea Level Pressure 30.25 in    
Wind  
Wind Speed 10 mph (WNW)    
Max Wind Speed 16 mph    
Max Gust Speed 24 mph    
Averages and records for this station are not official NWS values.
T = Trace of Precipitation, MM = Missing Value Source: NWS Daily Summary

Daily Weather History Graph

Daily Weather History Graph

Search for Another Location

Airport or City:

Trip Planner

Search our weather history database for the weather conditions in past years. The results will help you decide how hot, cold, wet, or windy it might be!

Date:

Astronomy

Feb. 08, 2014 Rise Set
Actual Time 6:50 AM EST 5:13 PM EST
Civil Twilight 6:22 AM EST 5:42 PM EST
Nautical Twilight 5:49 AM EST 6:14 PM EST
Astronomical Twilight 5:17 AM EST 6:46 PM EST
Moon 12:04 PM EST (2/8) 2:01 AM EST (2/8)
Length of Visible Light 11h 19m
Length of Day
10h 22m
Waxing Gibbous, 68% of the Moon is Illuminated
Feb 8
Waxing Gibbous
Feb 14
Full
Feb 22
Last Quarter
Mar 1
New
Mar 8
First Quarter

Hourly Weather History & Observations

Time (EST) Temp. Windchill Dew Point Humidity Pressure Visibility Wind Dir Wind Speed Gust Speed Precip Events Conditions
12:54 AM 30.9 °F 19.8 °F 12.0 °F 46% 30.26 in - West 16.1 mph 24.2 mph N/A   Unknown
1:54 AM 30.0 °F 20.5 °F 10.9 °F 45% 30.27 in - West 11.5 mph 23.0 mph N/A   Unknown
2:54 AM 28.9 °F 19.8 °F 10.9 °F 47% 30.27 in - West 10.4 mph 19.6 mph N/A   Unknown
3:54 AM 28.9 °F 18.2 °F 10.9 °F 47% 30.28 in - West 13.8 mph 19.6 mph N/A   Unknown
4:54 AM 28.0 °F 18.1 °F 10.0 °F 47% 30.30 in - WNW 11.5 mph - N/A   Unknown
5:54 AM 27.0 °F 18.0 °F 9.0 °F 47% 30.30 in - WNW 9.2 mph - N/A   Unknown
6:54 AM 26.1 °F 16.8 °F 8.1 °F 47% 30.31 in - WNW 9.2 mph - N/A   Unknown
7:54 AM 26.1 °F 17.6 °F 8.1 °F 47% 30.32 in - WNW 8.1 mph - N/A   Unknown
8:54 AM 26.1 °F 17.6 °F 9.0 °F 49% 30.32 in - NW 8.1 mph - N/A   Unknown
9:54 AM 25.0 °F 18.1 °F 10.0 °F 53% 30.34 in - NNW 5.8 mph - N/A   Unknown
10:54 AM 26.1 °F 20.5 °F 8.1 °F 47% 30.32 in - Variable 4.6 mph - N/A   Unknown
11:54 AM 26.1 °F 21.9 °F 10.0 °F 51% 30.28 in - Variable 3.5 mph - N/A   Unknown
12:54 PM 27.0 °F 18.7 °F 10.0 °F 49% 30.25 in - NW 8.1 mph - N/A   Unknown
1:54 PM 26.1 °F 18.4 °F 8.1 °F 47% 30.23 in - Variable 6.9 mph - N/A   Unknown
2:54 PM 27.0 °F 21.6 °F 10.9 °F 51% 30.25 in - SW 4.6 mph - N/A   Unknown
3:54 PM 28.0 °F 22.8 °F 12.0 °F 51% 30.24 in - WSW 4.6 mph - N/A   Unknown
4:54 PM 28.0 °F 20.8 °F 10.9 °F 49% 30.23 in - West 6.9 mph - N/A   Unknown
5:54 PM 28.0 °F 22.8 °F 12.0 °F 51% 30.22 in - West 4.6 mph - N/A   Unknown
6:54 PM 28.0 °F 21.7 °F 10.9 °F 49% 30.18 in - WNW 5.8 mph - N/A   Unknown
7:54 PM 28.9 °F 22.8 °F 12.9 °F 51% 30.17 in - NW 5.8 mph - N/A   Unknown
8:54 PM 28.9 °F 22.8 °F 12.9 °F 51% 30.16 in - NW 5.8 mph - N/A   Unknown
9:54 PM 28.9 °F 22.8 °F 12.0 °F 49% 30.15 in - NW 5.8 mph - N/A   Unknown
10:54 PM 28.9 °F 22.8 °F 12.0 °F 49% 30.14 in - NW 5.8 mph - N/A   Unknown
11:54 PM 28.9 °F 22.8 °F 10.0 °F 45% 30.13 in - NW 5.8 mph - N/A   Unknown